When you browse on this site, cookies collect data to enhance your experience and personalize the content and advertising you see.
Visit our Privacy Policy to learn more. By continuing to use the site, you agree to this use of cookies and data.

Meteo pe oră la Elbasan

Astăzi, 11 August, Marţi

Timp Temperatura Precipitaţii Vânt Presiune Umiditate
00:00 +24°C° 0 mm 1 m/s 735 mmHg 65%
01:00 +24°C° 0 mm 1 m/s 735 mmHg 66%
02:00 +24°C° 0 mm 1 m/s 735 mmHg 66%
03:00 +23°C° 0 mm 1 m/s 735 mmHg 66%
04:00 +23°C° 0 mm 1 m/s 735 mmHg 67%
05:00 +24°C° 0 mm 1 m/s 735 mmHg 63%
06:00 +26°C° 0 mm 1 m/s 735 mmHg 59%
07:00 +27°C° 0 mm 1 m/s 735 mmHg 55%
08:00 +29°C° 0 mm 1 m/s 736 mmHg 49%
09:00 +31°C° 0 mm 1 m/s 736 mmHg 43%
10:00 +33°C° 0 mm 1 m/s 736 mmHg 37%
11:00 +34°C° 0 mm 2 m/s 736 mmHg 36%
12:00 +35°C° 0 mm 2 m/s 736 mmHg 36%
13:00 +35°C° 0 mm 3 m/s 736 mmHg 35%
14:00 +34°C° 0 mm 3 m/s 736 mmHg 38%
15:00 +32°C° 0 mm 2 m/s 735 mmHg 42%
16:00 +31°C° 0 mm 2 m/s 735 mmHg 45%
17:00 +30°C° 0 mm 2 m/s 735 mmHg 50%
18:00 +28°C° 0 mm 1 m/s 735 mmHg 55%
19:00 +26°C° 0 mm 1 m/s 735 mmHg 61%
20:00 +26°C° 0 mm 1 m/s 735 mmHg 62%
21:00 +25°C° 0 mm 1 m/s 735 mmHg 63%
22:00 +25°C° 0 mm 1 m/s 735 mmHg 64%
23:00 +25°C° 0 mm 1 m/s 735 mmHg 64%

Mâine, 12 August, Miercuri

Timp Temperatura Precipitaţii Vânt Presiune Umiditate
00:00 +24°C° 0 mm 1 m/s 735 mmHg 65%
01:00 +24°C° 0 mm 1 m/s 735 mmHg 65%
02:00 +24°C° 0 mm 1 m/s 735 mmHg 65%
03:00 +23°C° 0 mm 1 m/s 735 mmHg 66%
04:00 +23°C° 0 mm 1 m/s 735 mmHg 66%
05:00 +25°C° 0 mm 1 m/s 735 mmHg 62%
06:00 +26°C° 0 mm 1 m/s 735 mmHg 57%
07:00 +26°C° 0 mm 0 m/s 735 mmHg 53%
08:00 +30°C° 0 mm 1 m/s 736 mmHg 47%
09:00 +32°C° 0 mm 1 m/s 736 mmHg 42%
10:00 +34°C° 0 mm 1 m/s 736 mmHg 36%
11:00 +35°C° 0 mm 2 m/s 736 mmHg 35%
12:00 +35°C° 0 mm 3 m/s 735 mmHg 34%
13:00 +36°C° 0 mm 4 m/s 735 mmHg 33%
14:00 +35°C° 0 mm 4 m/s 735 mmHg 36%
15:00 +34°C° 0 mm 4 m/s 735 mmHg 39%
16:00 +33°C° 0 mm 3 m/s 735 mmHg 42%
17:00 +30°C° 0 mm 3 m/s 735 mmHg 49%
18:00 +28°C° 0 mm 2 m/s 735 mmHg 57%
19:00 +26°C° 0 mm 1 m/s 735 mmHg 64%
20:00 +26°C° 0.1 mm 1 m/s 735 mmHg 66%
21:00 +25°C° 0.1 mm 1 m/s 735 mmHg 68%
22:00 +24°C° 0.1 mm 1 m/s 735 mmHg 71%
23:00 +24°C° 0 mm 1 m/s 735 mmHg 70%

Poimâine, 13 August, Joi

Timp Temperatura Precipitaţii Vânt Presiune Umiditate
00:00 +24°C° 0 mm 1 m/s 735 mmHg 70%
01:00 +24°C° 0 mm 1 m/s 735 mmHg 69%
02:00 +23°C° 0 mm 1 m/s 735 mmHg 69%
03:00 +23°C° 0 mm 1 m/s 735 mmHg 70%
04:00 +23°C° 0 mm 1 m/s 735 mmHg 70%
05:00 +24°C° 0 mm 1 m/s 735 mmHg 65%
06:00 +26°C° 0 mm 1 m/s 735 mmHg 60%
07:00 +28°C° 0 mm 1 m/s 735 mmHg 55%
08:00 +30°C° 0 mm 1 m/s 736 mmHg 49%
09:00 +32°C° 0 mm 1 m/s 736 mmHg 43%
10:00 +34°C° 0 mm 1 m/s 736 mmHg 37%
11:00 +35°C° 0.1 mm 2 m/s 735 mmHg 36%
12:00 +36°C° 0.1 mm 2 m/s 735 mmHg 34%
13:00 +36°C° 0.1 mm 3 m/s 735 mmHg 33%
14:00 +35°C° 0 mm 3 m/s 735 mmHg 36%
15:00 +34°C° 0 mm 3 m/s 735 mmHg 39%
16:00 +34°C° 0 mm 3 m/s 735 mmHg 42%
17:00 +31°C° 0 mm 2 m/s 735 mmHg 48%
18:00 +29°C° 0 mm 1 m/s 735 mmHg 55%
19:00 +27°C° 0 mm 1 m/s 735 mmHg 61%
20:00 +26°C° 0 mm 1 m/s 735 mmHg 62%
21:00 +26°C° 0 mm 1 m/s 735 mmHg 63%
22:00 +25°C° 0 mm 1 m/s 735 mmHg 65%
23:00 +25°C° 0 mm 1 m/s 735 mmHg 65%

14 August, Vineri

Timp Temperatura Precipitaţii Vânt Presiune Umiditate
00:00 +25°C° 0 mm 1 m/s 735 mmHg 64%
01:00 +25°C° 0 mm 1 m/s 735 mmHg 64%
02:00 +25°C° 0 mm 1 m/s 735 mmHg 65%
03:00 +24°C° 0 mm 1 m/s 734 mmHg 66%
04:00 +24°C° 0 mm 1 m/s 734 mmHg 66%
05:00 +26°C° 0 mm 1 m/s 734 mmHg 62%
06:00 +27°C° 0 mm 1 m/s 734 mmHg 58%
07:00 +29°C° 0 mm 1 m/s 735 mmHg 53%
08:00 +31°C° 0 mm 1 m/s 735 mmHg 47%
09:00 +33°C° 0 mm 1 m/s 735 mmHg 41%
10:00 +35°C° 0 mm 1 m/s 735 mmHg 35%
11:00 +36°C° 0 mm 1 m/s 735 mmHg 33%
12:00 +37°C° 0 mm 2 m/s 735 mmHg 30%
13:00 +38°C° 0 mm 3 m/s 734 mmHg 28%
14:00 +37°C° 0 mm 3 m/s 734 mmHg 30%
15:00 +37°C° 0 mm 3 m/s 733 mmHg 32%
16:00 +36°C° 0 mm 3 m/s 733 mmHg 33%
17:00 +33°C° 0 mm 3 m/s 733 mmHg 39%
18:00 +30°C° 0 mm 2 m/s 733 mmHg 46%
19:00 +28°C° 0 mm 1 m/s 733 mmHg 52%
20:00 +27°C° 0 mm 1 m/s 733 mmHg 52%
21:00 +27°C° 0 mm 1 m/s 733 mmHg 53%
22:00 +26°C° 0 mm 1 m/s 733 mmHg 53%
23:00 +26°C° 0 mm 1 m/s 733 mmHg 54%

15 August, Sâmbătă

Timp Temperatura Precipitaţii Vânt Presiune Umiditate
00:00 +25°C° 0 mm 1 m/s 733 mmHg 55%
01:00 +25°C° 0 mm 1 m/s 733 mmHg 56%
02:00 +25°C° 0 mm 1 m/s 733 mmHg 57%
03:00 +25°C° 0 mm 1 m/s 732 mmHg 57%
04:00 +24°C° 0 mm 1 m/s 732 mmHg 57%
05:00 +26°C° 0 mm 1 m/s 732 mmHg 54%
06:00 +28°C° 0 mm 1 m/s 732 mmHg 50%
07:00 +29°C° 0 mm 1 m/s 733 mmHg 46%
08:00 +31°C° 0 mm 1 m/s 733 mmHg 41%
09:00 +34°C° 0 mm 2 m/s 733 mmHg 36%
10:00 +35°C° 0 mm 2 m/s 733 mmHg 31%
11:00 +36°C° 0 mm 3 m/s 733 mmHg 30%
12:00 +36°C° 0 mm 3 m/s 732 mmHg 29%
13:00 +37°C° 0 mm 4 m/s 732 mmHg 29%
14:00 +36°C° 0 mm 4 m/s 732 mmHg 31%
15:00 +35°C° 0 mm 4 m/s 732 mmHg 32%
16:00 +35°C° 0 mm 4 m/s 731 mmHg 34%
17:00 +31°C° 0 mm 3 m/s 731 mmHg 42%
18:00 +29°C° 0 mm 2 m/s 731 mmHg 49%
19:00 +26°C° 0 mm 1 m/s 731 mmHg 57%
20:00 +26°C° 0 mm 1 m/s 732 mmHg 59%
21:00 +25°C° 0 mm 1 m/s 732 mmHg 61%
22:00 +24°C° 0 mm 1 m/s 732 mmHg 62%
23:00 +24°C° 0 mm 1 m/s 732 mmHg 61%

16 August, Duminică

Timp Temperatura Precipitaţii Vânt Presiune Umiditate
00:00 +24°C° 0 mm 1 m/s 732 mmHg 61%
01:00 +24°C° 0 mm 1 m/s 732 mmHg 60%
02:00 +23°C° 0 mm 1 m/s 732 mmHg 61%
03:00 +21°C° 0 mm 0 m/s 731 mmHg 62%
04:00 +20°C° 0 mm 0 m/s 731 mmHg 63%
05:00 +22°C° 0 mm 0 m/s 731 mmHg 59%
06:00 +24°C° 0 mm 0 m/s 732 mmHg 54%
07:00 +25°C° 0 mm 0 m/s 732 mmHg 50%
08:00 +29°C° 0 mm 1 m/s 732 mmHg 45%
09:00 +31°C° 0 mm 1 m/s 732 mmHg 40%
10:00 +32°C° 0 mm 2 m/s 732 mmHg 35%
11:00 +34°C° 0 mm 3 m/s 732 mmHg 34%
12:00 +35°C° 0 mm 3 m/s 732 mmHg 32%
13:00 +36°C° 0 mm 4 m/s 732 mmHg 30%
14:00 +35°C° 0 mm 4 m/s 732 mmHg 33%
15:00 +34°C° 0 mm 4 m/s 731 mmHg 36%
16:00 +33°C° 0 mm 4 m/s 731 mmHg 39%
17:00 +30°C° 0 mm 3 m/s 731 mmHg 47%
18:00 +28°C° 0 mm 2 m/s 731 mmHg 55%
19:00 +26°C° 0 mm 1 m/s 731 mmHg 62%
20:00 +25°C° 0 mm 1 m/s 732 mmHg 64%
21:00 +24°C° 0 mm 1 m/s 732 mmHg 66%
22:00 +24°C° 0 mm 1 m/s 732 mmHg 68%
23:00 +23°C° 0 mm 1 m/s 732 mmHg 68%
Arată mai mult